Location: Bun Machan
(52.1403°N, 7.3744°W)
Time: 17:54:19
(UTC+00:00)

Resurs 1-4 Rocket - Pass Details

Date: 14 July 2020
Orbit: 800 x 814 km, 98.6° (Epoch: 12 August)

Event Time Altitude Azimuth Distance (km) Brightness Sun altitude
Rises 01:21:06 0° 21° (NNE) 3,351 7.0 -15.6°
Reaches altitude 10° 01:23:43 10° 32° (NNE) 2,413 5.7 -15.5°
Maximum altitude 01:28:27 31° 94° (E) 1,386 3.4 -15.3°
Enters shadow 01:32:22 14° 152° (SSE) 2,139 3.9 -15.2°
